New York, NY

6:48 AM EST on December 07, 2019 (GMT -0500)
La Guardia

Weather History for KLGA - November, 2019

Change the Weather History Date:

Monday, November 18, 2019

  Actual Average Record
Temperature  
Mean Temperature 40 °F 48 °F  
Max Temperature 43 °F 54 °F 72 °F (1953)
Min Temperature 37 °F 41 °F 22 °F (1959)
Degree Days  
Heating Degree Days 25 18  
Month to date heating degree days 368 268  
Since 1 July heating degree days 522 540  
Cooling Degree Days 0 0  
Month to date cooling degree days 0 0  
Year to date cooling degree days 1484 1213  
Moisture  
Dew Point 36 °F    
Average Humidity 85    
Maximum Humidity 93    
Minimum Humidity 64    
Precipitation  
Precipitation 0.43 in 0.11 in 1.03 in (1968)
Month to date precipitation 0.60 1.98  
Year to date precipitation 42.66 39.74  
Snow  
Snow 0.00 in 0.00 in 1.10 in (1962)
Month to date snowfall 0.0 0.0  
Since 1 July snowfall 0.0 0.0  
Snow Depth 0.00 in    
Sea Level Pressure  
Sea Level Pressure 29.80 in    
Wind  
Wind Speed 11 mph ()    
Max Wind Speed 17 mph    
Max Gust Speed 23 mph    
Visibility 4.8 miles    
Events Rain , Snow    
T = Trace of Precipitation, MM = Missing Value Source: Averaged Metar Reports

Daily Weather History Graph

Daily Weather History Graph

Search for Another Location

Airport or City:

Astronomy

Nov. 18, 2019 Rise Set
Actual Time 6:45 AM EST 4:35 PM EST
Civil Twilight 6:16 AM EST 5:04 PM EST
Nautical Twilight 5:42 AM EST 5:38 PM EST
Astronomical Twilight 5:10 AM EST 6:10 PM EST
Moon 10:16 PM EST (11/18) 12:15 PM EST (11/18)
Length of Visible Light 10h 48m
Length of Day
9h 49m
Waning Gibbous, 63% of the Moon is Illuminated
Nov 18
Waning Gibbous
Nov 19
Last Quarter
Nov 26
New
Dec 4
First Quarter
Dec 12
Full

Hourly Weather History & Observations

Time (EST) Temp. Windchill Dew Point Humidity Pressure Visibility Wind Dir Wind Speed Gust Speed Precip Events Conditions
12:17 AM 39.9 °F 31.8 °F 30.0 °F 68% 30.02 in 10.0 mi NE 15.0 mph - N/A   Overcast
12:27 AM 39.9 °F 32.1 °F 30.0 °F 68% 30.01 in 10.0 mi NNE 13.8 mph 20.7 mph N/A   Overcast
12:51 AM 39.0 °F 31.0 °F 32.0 °F 76% 30.00 in 10.0 mi NNE 13.8 mph 23.0 mph N/A   Overcast
1:51 AM 39.0 °F 31.4 °F 33.1 °F 79% 29.97 in 10.0 mi NNE 12.7 mph - N/A   Overcast
2:51 AM 39.0 °F 31.4 °F 33.1 °F 79% 29.95 in 10.0 mi NNE 12.7 mph - N/A   Overcast
4:51 AM 39.0 °F 30.6 °F 34.0 °F 82% 29.91 in 10.0 mi North 15.0 mph - N/A   Overcast
5:43 AM 37.9 °F 31.5 °F 35.1 °F 89% 29.90 in 2.5 mi North 9.2 mph - 0.00 in Rain Light Rain
5:51 AM 37.9 °F 30.5 °F 35.1 °F 89% 29.90 in 2.5 mi North 11.5 mph - 0.00 in Snow Light Snow
6:03 AM 37.9 °F 30.9 °F 35.1 °F 89% 29.90 in 3.0 mi North 10.4 mph - 0.01 in   Light Drizzle
6:35 AM 39.0 °F 32.3 °F 35.1 °F 86% 29.90 in 5.0 mi NNE 10.4 mph - 0.01 in   Light Drizzle
6:51 AM 39.0 °F 31.4 °F 35.1 °F 86% 29.90 in 4.0 mi North 12.7 mph - 0.01 in   Light Drizzle
7:51 AM 39.0 °F 31.4 °F 35.1 °F 86% 29.88 in 10.0 mi NNE 12.7 mph - 0.00 in   Overcast
8:51 AM 39.9 °F 32.9 °F 36.0 °F 86% 29.86 in 10.0 mi NNE 11.5 mph - N/A   Overcast
9:51 AM 41.0 °F 33.9 °F 36.0 °F 82% 29.84 in 10.0 mi NNE 12.7 mph - N/A   Overcast
10:48 AM 39.2 °F 31.6 °F 37.4 °F 93% 29.82 in 1.5 mi NNW 12.7 mph - 0.00 in Rain Light Rain
10:51 AM 39.9 °F 32.9 °F 37.0 °F 89% 29.82 in 1.5 mi North 11.5 mph - 0.00 in Rain Light Rain
11:23 AM 41.0 °F 34.3 °F 37.0 °F 86% 29.80 in 1.5 mi NNW 11.5 mph - 0.00 in   Light Drizzle
11:51 AM 42.1 °F 35.2 °F 37.9 °F 85% 29.78 in 4.0 mi North 12.7 mph - 0.00 in   Light Drizzle
12:46 PM 42.8 °F 36.2 °F 37.4 °F 81% 29.75 in 2.5 mi NNW 12.7 mph - 0.00 in Rain Light Rain
12:51 PM 42.1 °F 34.5 °F 37.9 °F 85% 29.75 in 2.5 mi NNW 15.0 mph - 0.00 in Rain Light Rain
1:51 PM 41.0 °F 34.3 °F 37.9 °F 89% 29.73 in 2.0 mi NNW 11.5 mph - 0.03 in Rain Light Rain
2:20 PM 42.1 °F 35.7 °F 37.9 °F 85% 29.73 in 2.0 mi NNW 11.5 mph - 0.00 in Rain Light Rain
2:28 PM 42.1 °F 35.7 °F 37.9 °F 85% 29.73 in 2.0 mi North 11.5 mph - 0.00 in Rain Light Rain
2:51 PM 42.1 °F 35.2 °F 37.9 °F 85% 29.73 in 2.0 mi NNW 12.7 mph - 0.00 in Rain Light Rain
3:51 PM 41.0 °F 33.9 °F 37.9 °F 89% 29.72 in 2.0 mi North 12.7 mph - 0.04 in Rain Light Rain
5:02 PM 41.0 °F 34.3 °F 37.9 °F 89% 29.72 in 6.0 mi NNW 11.5 mph - 0.00 in Rain Light Rain
5:22 PM 42.1 °F 35.2 °F 37.9 °F 85% 29.72 in 6.0 mi North 12.7 mph 18.4 mph 0.00 in   Overcast
5:51 PM 42.1 °F 34.9 °F 37.0 °F 82% 29.72 in 7.0 mi North 13.8 mph - 0.00 in   Overcast
6:18 PM 42.1 °F 35.7 °F 37.0 °F 82% 29.71 in 10.0 mi North 11.5 mph - N/A   Overcast
6:45 PM 41.0 °F 35.2 °F 37.4 °F 87% 29.71 in 2.5 mi North 9.2 mph - N/A   Overcast
6:51 PM 41.0 °F 34.7 °F 37.0 °F 86% 29.72 in 2.5 mi North 10.4 mph - 0.00 in Rain Light Rain
7:51 PM 41.0 °F 34.3 °F 37.9 °F 89% 29.71 in 2.5 mi NNW 11.5 mph - 0.02 in Rain Light Rain
8:28 PM 41.0 °F 36.4 °F 37.9 °F 89% 29.72 in 2.0 mi NW 6.9 mph - 0.03 in Rain Light Rain
8:34 PM 41.0 °F 35.8 °F 37.9 °F 89% 29.72 in 2.0 mi NNW 8.1 mph - 0.04 in Rain Light Rain
8:51 PM 41.0 °F 36.4 °F 39.0 °F 93% 29.71 in 2.0 mi NNW 6.9 mph - 0.05 in Rain Light Rain
9:51 PM 41.0 °F 36.4 °F 39.0 °F 93% 29.71 in 2.0 mi North 6.9 mph - 0.16 in Rain Rain
10:49 PM 42.8 °F 41.1 °F 39.2 °F 87% 29.71 in 5.0 mi North 3.5 mph - 0.06 in Rain Light Rain
10:51 PM 42.1 °F 39.2 °F 39.0 °F 89% 29.71 in 4.0 mi North 4.6 mph - 0.06 in Rain Light Rain
11:51 PM 42.1 °F 39.2 °F 39.0 °F 89% 29.70 in 3.0 mi North 4.6 mph - 0.05 in Rain Rain